Twin Falls, ID

11:58 PM MST on November 18, 2017 (GMT -0700)
Joslin Field-Magic Valley Regional

Weather History for KTWF - November, 2013

Change the Weather History Date:

Saturday, November 30, 2013

  Actual Average Record
Temperature  
Mean Temperature 43 °F -  
Max Temperature 50 °F 41 °F 64 °F (1999)
Min Temperature 36 °F 22 °F -2 °F (2015)
Degree Days  
Heating Degree Days 22 34  
Month to date heating degree days 745 820  
Since 1 July heating degree days 1356 1438  
Cooling Degree Days 0 0  
Month to date cooling degree days 0 0  
Year to date cooling degree days 1138 680  
Moisture  
Dew Point 28 °F    
Average Humidity 55    
Maximum Humidity 64    
Minimum Humidity 46    
Precipitation  
Precipitation T in 0.05 in 0.40 in (2012)
Month to date precipitation 0.23 1.18  
Year to date precipitation 4.46 9.43  
Sea Level Pressure  
Sea Level Pressure 30.26 in    
Wind  
Wind Speed 9 mph (SW)    
Max Wind Speed 14 mph    
Max Gust Speed 18 mph    
Visibility 10 miles    
Events      
T = Trace of Precipitation, MM = Missing Value Source: NWS Daily Summary

Daily Weather History Graph

Daily Weather History Graph

Search for Another Location

Airport or City:

Trip Planner

Search our weather history database for the weather conditions in past years. The results will help you decide how hot, cold, wet, or windy it might be!

Date:

Astronomy

Nov. 30, 2013 Rise Set
Actual Time 7:47 AM MST 5:06 PM MST
Civil Twilight 7:15 AM MST 5:37 PM MST
Nautical Twilight 6:40 AM MST 6:12 PM MST
Astronomical Twilight 6:06 AM MST 6:46 PM MST
Moon 5:00 AM MST (11/30) 3:35 PM MST (11/30)
Length of Visible Light 10h 21m
Length of Day
9h 19m
Waning Crescent, 7% of the Moon is Illuminated
Nov 30
Waning Crescent
Dec 2
New
Dec 9
First Quarter
Dec 17
Full
Dec 25
Last Quarter

Hourly Weather History & Observations

Time (MST) Temp. Windchill Dew Point Humidity Pressure Visibility Wind Dir Wind Speed Gust Speed Precip Events Conditions
12:53 AM 39.9 °F 32.5 °F 25.0 °F 55% 30.22 in 10.0 mi SSW 12.7 mph - N/A   Clear
1:53 AM 37.9 °F 30.5 °F 25.0 °F 60% 30.22 in 10.0 mi South 11.5 mph - N/A   Clear
2:53 AM 39.0 °F 31.8 °F 26.1 °F 60% 30.23 in 10.0 mi SSW 11.5 mph - N/A   Clear
3:53 AM 39.9 °F 33.9 °F 26.1 °F 58% 30.23 in 10.0 mi SW 9.2 mph - N/A   Clear
4:53 AM 39.0 °F 32.3 °F 26.1 °F 60% 30.24 in 10.0 mi SSW 10.4 mph - N/A   Mostly Cloudy
5:53 AM 39.9 °F 32.9 °F 26.1 °F 58% 30.27 in 10.0 mi SSW 11.5 mph - N/A   Overcast
6:53 AM 39.0 °F 34.8 °F 27.0 °F 62% 30.30 in 10.0 mi Variable 5.8 mph - N/A   Overcast
7:53 AM 37.9 °F 32.1 °F 26.1 °F 62% 30.30 in 10.0 mi SW 8.1 mph - N/A   Overcast
8:53 AM 42.1 °F 36.1 °F 27.0 °F 55% 30.28 in 10.0 mi SSW 10.4 mph - N/A   Overcast
9:53 AM 46.0 °F 41.4 °F 28.0 °F 50% 30.27 in 10.0 mi SSW 9.2 mph - N/A   Overcast
10:53 AM 48.0 °F - 28.9 °F 48% 30.28 in 10.0 mi SW 11.5 mph - N/A   Overcast
11:53 AM 48.0 °F - 30.0 °F 50% 30.26 in 10.0 mi West 10.4 mph - N/A   Overcast
12:53 PM 48.0 °F - 30.0 °F 50% 30.25 in 10.0 mi West 11.5 mph - N/A   Overcast
1:53 PM 48.9 °F - 30.0 °F 48% 30.23 in 10.0 mi West 8.1 mph - N/A   Overcast
2:53 PM 48.9 °F - 28.9 °F 46% 30.23 in 10.0 mi West 11.5 mph - N/A   Overcast
3:53 PM 46.9 °F - 28.9 °F 50% 30.24 in 10.0 mi West 8.1 mph - N/A   Overcast
4:53 PM 45.0 °F 41.2 °F 28.9 °F 53% 30.27 in 10.0 mi WSW 6.9 mph - N/A   Overcast
5:53 PM 44.1 °F 39.5 °F 28.9 °F 55% 30.27 in 10.0 mi SW 8.1 mph - N/A   Overcast
6:53 PM 43.0 °F 38.2 °F 30.9 °F 62% 30.28 in 10.0 mi South 8.1 mph - 0.00 in   Overcast
7:53 PM 43.0 °F 38.8 °F 30.0 °F 60% 30.28 in 10.0 mi SSW 6.9 mph - N/A   Overcast
8:53 PM 43.0 °F 38.8 °F 30.0 °F 60% 30.27 in 10.0 mi SW 6.9 mph - N/A   Overcast
9:53 PM 42.1 °F 37.7 °F 30.9 °F 65% 30.26 in 10.0 mi SSW 6.9 mph - N/A   Overcast
10:53 PM 42.1 °F 37.7 °F 30.9 °F 65% 30.26 in 10.0 mi SSW 6.9 mph - N/A   Overcast
11:53 PM 43.0 °F 38.2 °F 33.1 °F 68% 30.25 in 10.0 mi SSW 8.1 mph - N/A   Overcast